Change the Weather History Date:

Sunday, April 14, 2013

  Actual Average Record
Temperature  
Mean Temperature 59 °F -  
Max Temperature 73 °F 71 °F 90 °F (1964)
Min Temperature 45 °F 46 °F 35 °F (1955)
Degree Days  
Heating Degree Days 6    
Cooling Degree Days 0    
Growing Degree Days 9 (Base 50)    
Moisture  
Dew Point 38 °F    
Average Humidity 48    
Maximum Humidity 77    
Minimum Humidity 19    
Precipitation  
Precipitation 0.00 in 0.04 in 1.19 in (1963)
Month to date precipitation 0.67 0.63  
Year to date precipitation 3.37 10.49  
Since 1 July precipitation 14.66 17.11  
Sea Level Pressure  
Sea Level Pressure 29.83 in    
Wind  
Wind Speed 5 mph (WSW)    
Max Wind Speed 17 mph    
Max Gust Speed 22 mph    
Visibility 10 miles    
Events      
T = Trace of Precipitation, MM = Missing Value Source: NWS Daily Summary

Daily Weather History Graph

Daily Weather History Graph

Search for Another Location

Airport or City:

Trip Planner

Search our weather history database for the weather conditions in past years. The results will help you decide how hot, cold, wet, or windy it might be!

Date:

Astronomy

Apr. 14, 2013 Rise Set
Actual Time 6:30 AM PDT 7:41 PM PDT
Civil Twilight 6:03 AM PDT 8:09 PM PDT
Nautical Twilight 5:30 AM PDT 8:42 PM PDT
Astronomical Twilight 4:56 AM PDT 9:16 PM PDT
Moon 9:14 AM PDT (4/14) 11:57 PM PDT (4/14)
Length of Visible Light 14h 05m
Length of Day
13h 11m
Waxing Crescent, 18% of the Moon is Illuminated
Apr 14
Waxing Crescent
Apr 18
First Quarter
Apr 25
Full
May 2
Last Quarter
May 9
New

Hourly Weather History & Observations

Time (PDT) Temp. Windchill Dew Point Humidity Pressure Visibility Wind Dir Wind Speed Gust Speed Precip Events Conditions
12:53 AM 50.0 °F - 42.1 °F 74% 29.85 in 10.0 mi Calm Calm - N/A   Clear
1:53 AM 48.9 °F - 41.0 °F 74% 29.85 in 10.0 mi Calm Calm - N/A   Clear
2:53 AM 48.9 °F - 41.0 °F 74% 29.84 in 10.0 mi Calm Calm - N/A   Clear
3:53 AM 46.0 °F 44.8 °F 39.0 °F 76% 29.85 in 10.0 mi WSW 3.5 mph - N/A   Clear
4:53 AM 46.4 °F 45.2 °F 39.2 °F 76% 29.86 in 10.0 mi SW 3.5 mph - N/A   Clear
5:53 AM 45.0 °F 43.5 °F 37.9 °F 76% 29.85 in 10.0 mi SW 3.5 mph - N/A   Clear
6:53 AM 48.9 °F - 35.1 °F 59% 29.86 in 10.0 mi WNW 5.8 mph - N/A   Clear
7:53 AM 54.0 °F - 34.0 °F 47% 29.88 in 10.0 mi NW 10.4 mph - N/A   Clear
8:53 AM 57.9 °F - 34.0 °F 41% 29.90 in 10.0 mi NNW 12.7 mph 17.3 mph N/A   Clear
9:53 AM 61.0 °F - 35.1 °F 38% 29.89 in 10.0 mi North 10.4 mph - N/A   Clear
10:53 AM 64.0 °F - 34.0 °F 33% 29.90 in 10.0 mi WNW 9.2 mph - N/A   Clear
11:53 AM 66.9 °F - 32.0 °F 27% 29.89 in 10.0 mi NNW 10.4 mph - N/A   Clear
12:53 PM 69.8 °F - 28.4 °F 21% 29.86 in 10.0 mi WNW 10.4 mph - N/A   Clear
1:53 PM 71.1 °F - 27.0 °F 19% 29.85 in 10.0 mi Calm Calm - N/A   Clear
2:53 PM 71.1 °F - 36.0 °F 28% 29.83 in 10.0 mi SW 10.4 mph - N/A   Clear
3:53 PM 73.0 °F - 39.0 °F 29% 29.80 in 10.0 mi South 8.1 mph - N/A   Clear
4:53 PM 73.0 °F - 43.0 °F 34% 29.76 in 10.0 mi SSW 10.4 mph 18.4 mph N/A   Clear
5:53 PM 73.0 °F - 44.1 °F 35% 29.74 in 10.0 mi SSW 11.5 mph 18.4 mph N/A   Partly Cloudy
6:53 PM 70.0 °F - 42.1 °F 36% 29.74 in 10.0 mi West 15.0 mph 23.0 mph N/A   Clear
7:53 PM 64.9 °F - 41.0 °F 42% 29.75 in 10.0 mi WSW 13.8 mph 19.6 mph N/A   Clear
8:53 PM 62.1 °F - 41.0 °F 46% 29.76 in 10.0 mi West 15.0 mph - N/A   Clear
9:53 PM 57.0 °F - 42.1 °F 57% 29.79 in 10.0 mi SW 5.8 mph - N/A   Clear
10:53 PM 52.0 °F - 42.1 °F 69% 29.80 in 10.0 mi South 3.5 mph - N/A   Clear
11:53 PM 51.1 °F - 43.0 °F 74% 29.80 in 10.0 mi SSW 5.8 mph - N/A   Mostly Cloudy